Location: 22
(39.7117°N, 89.5929°W)
Time: 00:55:12
(UTC-06:00)

Courier 1B - All Passes

Search period start: 06 February 2023 00:00
Search period end: 16 February 2023 00:00
Orbit: 962 x 1209 km, 28.3° (Epoch: 05 February)

Date Brightness Start Highest point End Pass type
(mag) Time Alt. Az. Time Alt. Az. Time Alt. Az.
06 Feb - 10:07:12 10° SSW 10:11:49 18° SSE 10:16:18 10° ESE daylight
06 Feb - 11:59:16 10° SW 12:05:04 29° S 12:10:39 10° ESE daylight
06 Feb - 13:52:47 10° WSW 13:58:21 28° S 14:03:47 10° SE daylight
06 Feb - 15:47:35 10° WSW 15:51:26 16° SSW 15:55:16 10° SSE daylight
07 Feb - 09:14:18 10° S 09:18:14 15° SSE 09:22:01 10° SE daylight
07 Feb - 11:05:39 10° SW 11:11:28 28° S 11:17:00 10° ESE daylight
07 Feb - 12:58:57 10° WSW 13:04:46 30° S 13:10:23 10° SE daylight
07 Feb - 14:53:19 10° WSW 14:57:56 20° SSW 15:02:28 10° SSE daylight
08 Feb - 08:22:01 10° S 08:24:37 12° SSE 08:27:10 10° SE daylight
08 Feb - 10:12:08 10° SW 10:17:49 25° SSE 10:23:15 10° ESE daylight
08 Feb - 12:05:08 10° WSW 12:11:10 31° S 12:16:55 10° ESE daylight
08 Feb - 13:59:12 10° WSW 14:04:23 24° SSW 14:09:26 10° SE daylight
08 Feb - 15:57:13 10° SSW 15:57:21 10° SSW 15:57:28 10° SSW daylight
09 Feb - 09:18:44 10° SSW 09:24:10 22° SSE 09:29:23 10° ESE daylight
09 Feb - 11:11:22 10° WSW 11:17:31 31° S 11:23:22 10° ESE daylight
09 Feb - 13:05:12 10° WSW 13:10:50 27° SSW 13:16:15 10° SE daylight
09 Feb - 15:00:42 10° SW 15:03:51 14° SSW 15:06:58 10° S daylight
10 Feb - 08:25:31 10° SSW 08:30:30 19° SSE 08:35:19 10° ESE daylight
10 Feb - 10:17:38 10° SW 10:23:51 30° S 10:29:46 10° ESE daylight
10 Feb - 12:11:15 10° WSW 12:17:14 30° S 12:22:56 10° SE daylight
10 Feb - 14:06:04 10° WSW 14:10:21 18° SSW 14:14:33 10° SSE daylight
11 Feb - 07:32:37 10° S 07:36:51 16° SSE 07:40:58 10° ESE daylight
11 Feb - 09:23:58 10° SW 09:30:10 29° S 09:36:04 10° ESE daylight
11 Feb - 11:17:19 10° WSW 11:23:34 32° S 11:29:31 10° ESE daylight
11 Feb - 13:11:44 10° WSW 13:16:49 22° SSW 13:21:43 10° SSE daylight
12 Feb - 06:40:19 10° S 06:43:11 12° SSE 06:46:00 10° SE daylight
12 Feb - 08:30:24 10° SW 08:36:27 26° SSE 08:42:15 10° ESE daylight
12 Feb - 10:23:27 10° WSW 10:29:53 33° S 10:36:00 10° ESE daylight
12 Feb - 12:17:34 10° WSW 12:23:14 26° SSW 12:28:39 10° SE daylight
12 Feb - 14:14:10 10° SW 14:16:13 11° SSW 14:18:15 10° S daylight
13 Feb - 07:37:00 10° SSW 07:42:44 23° SSE 07:48:17 10° ESE daylight
13 Feb - 09:29:37 10° WSW 09:36:11 33° S 09:42:25 10° ESE daylight
13 Feb - 11:23:29 10° WSW 11:29:37 29° S 11:35:25 10° SE daylight
13 Feb - 13:18:52 10° WSW 13:22:43 16° SSW 13:26:28 10° S daylight
14 Feb - 06:43:50 10° SSW 06:49:02 19° SSE 06:54:07 10° ESE daylight
14 Feb - 08:35:51 10° SW 08:42:27 32° S 08:48:44 10° ESE daylight
14 Feb - 10:29:29 10° WSW 10:35:56 32° S 10:42:03 10° SE daylight
14 Feb - 12:24:16 10° WSW 12:29:10 20° SSW 12:33:53 10° SSE daylight
15 Feb - 05:51:01 10° S 05:55:20 16° SSE 05:59:37 10° ESE visible
15 Feb - 07:42:12 10° SW 07:48:41 29° SSE 07:54:57 10° ESE daylight
15 Feb - 09:35:32 10° WSW 09:42:13 34° S 09:48:34 10° ESE daylight
15 Feb - 11:29:55 10° WSW 11:35:34 24° SSW 11:40:58 10° SSE daylight
